User: anonymous   Login
Location: Asni�res
(49.1337°N, 2.3555°E)
Time: 17:46:34
(UTC+00:00)
Language:

Cosmos 2150 Rocket - Orbit

View from above orbital plane
View from above orbital plane
View from above satellite
View from above satellite

Ground track
Ground track

The orbit data is extracted from the following two-line orbital elements,

1 21419U 91041B   22018.72439927  .00000102  00000-0  45409-4 0  9997
2 21419  74.0400 112.7175 0041307 348.9869  11.0374 14.34036621600440
Epoch (UTC): 18 January 2022 17:23:08
Eccentricity: 0.0041307
inclination: 74.0400°
perigee height: 749 km
apogee height: 808 km
right ascension of ascending node: 112.7175°
argument of perigee: 348.9869°
revolutions per day: 14.34036621
mean anomaly at epoch: 11.0374°
orbit number at epoch: 60044

The dashed part of the orbit path shows where the satellite is in the earth's shadow,  

DLR